EXPRESS-AM7

Last updated on Wed Sep 09 2026 00:03:00 GMT+0000 (Coordinated Universal Time)

1 40505U 15012A 26251.45287986 .00000000 00000+0 00000+0 0 9996 2 40505 0.0276 141.5847 0003113 34.7829 14.1752 1.00269690 41842
UTC large
Height (km)
Speed (km/s)
/
Latitude / Longitude
Inclination (degrees)
Orbital Period (minutes)
Azimuth
Elevation
Range (km)
Doppler Factor

Next 0 passes for location: London (51.5072 / 0.1276)

No passes found over London.
EXPRESS-AM7